COSMOS 2471 (701K)

Last updated on Wed Dec 22 2021 00:02:59 GMT+0000 (Coordinated Universal Time)

1 37372U 11009A 21354.68544134 -.00000046 00000+0 00000+0 0 9992 2 37372 65.9492 9.3491 0017663 232.7723 326.9383 2.13063196 84157
UTC large
Height (km)
Speed (km/s)
/
Latitude / Longitude
Inclination (degrees)
Orbital Period (minutes)
Azimuth
Elevation
Range (km)
Doppler Factor

Next 0 passes for location: London (51.5072 / 0.1276)

Sorry there are no passes over London.